CZ-6A DEB

Satellite information

Favourite Embed

Satellite Type and Status

DEBRISIN ORBIT

Key statistics

Satellite CZ-6A DEB at a glance.

Uptime

1073

Days in orbit

Revolutions

≈ 14.3

Per day

Orbit

SSO

Sun Synchronous Orbit

Inclination

98.6

Latest

Satellite identification and parameters

Extended collection of information and parameters for CZ-6A DEB.

Object identification

Identified? True

Debris? True

Object name: CZ-6A DEB

International designator: 2022-151AH

Object number (NORAD): 54290

Object ID (CCSDS): 54290

Country: PEOPLES REPUBLIC OF CHINA (PRC)

Current information (Y/N): Y

RCS size: SMALL

Orbital parameters

Period: 100.585 minutes

Inclination: 98.5777 deg

SMA: 7164.462 km

Apoapsis: 876.345 km

Periapsis: 696.309 km

RAAN: 297.1812 deg

Eccentricy: 0.01256454

Argument of periapsis: 46.5772 deg

Mean anomaly: 314.5787 deg

Mean motion: 14.31618721 rev/day

Mean motion (dot): 0.00001086 rev/day2

B* drag term: 0.00038925823 1/REarth

Two-line elements (TLE)

Creation date: Oct. 19, 2025, 2:20 a.m.

Reference frame: TEME

Reference center: EARTH

Epoch: Oct. 18, 2025, 11:28 p.m. UTC

TLE line 0: 0 CZ-6A DEB

TLE line 1: 1 54290U 22151AH 25291.97790924 .00001086 00000-0 38926-3 0 9993

TLE line 2: 2 54290 98.5777 297.1812 0125645 46.5772 314.5787 14.31618721152691

Live tracking on map

Real-time ground track for satellite CZ-6A DEB.

In-orbit conjunctions

A list of the most updated potential collisions computed for object CZ-6A DEB.

Target Orbit TCA Probability of collision Miss distance Type
THORAD AGENA D DEB SSO 2025-06-22 23:24:24 0.0004371324 79.0 (m) DEBRIS
FENGYUN 1C DEB SSO 2024-12-16 15:51:09 0.0001243099 147.0 (m) DEBRIS
FENGYUN 1C DEB SSO 2024-11-10 06:53:11 0.0005226043 52.0 (m) DEBRIS
FENGYUN 1C DEB SSO 2024-08-19 04:05:20 0.0004244723 50.0 (m) DEBRIS

Associated space launch

Chinese satellite reported for atmospheric/ocean/environmental/spatial parameter research purposes, details TBD.

CZ-6A DEB was lifted into orbit during the mission ‘Long March 6A | Yunhai 3’, on board a Long March 6A space rocket.

The launch took place on Nov. 11, 2022, 10:52 p.m. from Launch Complex 9A.

For more information about the launch, click the button.

Launch to space Long March 6A | Yunhai 3
Long March 6A | Yunhai 3

Agency: N/A

Status: Launch Successful

Launch date: Nov. 11, 2022, 10:52 p.m. UTC

Rocket: Long March 6A

Launch pad: Launch Complex 9A

Location: Taiyuan Satellite Launch Center, People's Republic of China

...

Latest news about this satellite

There are no fresh news available about this satellite. Check back as we update our databases every day.


Newsletter sign-up

Weekly statistics, charts and insights to help you stay on top of the space industry.